Shi Jian 9B

operational
NORAD ID: 38861 Int'l Des: 2012-056 Owner: ZZWYZ Country: CN
LEOCIRCULARRETROGRADESSO

关于 Shi Jian 9B

正在加载描述...

实时位置

正在加载3D地球...

即将过境

高度历史

Altitude vs Time

uPlot chart will show altitude changes over time

两行轨道根数

1 38861U 12056B 26062.55462517 .00003055 00000-0 31498-3 0 9992
2 38861 97.5910 50.5914 0014604 200.8499 159.2126 14.90856031723982
Epoch: Mar 3, 2026 • Age: 31 hours

当前状态

高度 607.9 km
速度 7.55 km/s
星下点 0.51°N, 143.69°E
发射日期 Oct 14, 2012
运行时间 13.3 years
类型 other

技术详情

分类 Payload
质量 260.00 kg
干质量 260.00 kg
总质量 260.00 kg
长度 1.50 m
直径 1.90 m
跨度 4.00 m
形状 Box + 1 Pan
制造商 DFHZ
平台类型 CAST-100
阶段状态 In Orbit
所有者/国家 ZZWYZ/CN

大型星座

Loading constellations...